Location: Unspecified
(0.0000°N, 0.0000°E)
Time: 11:23:25
(UTC+00:00)

Vanguard 1 - Pass Details

Date: 24 November 2019
Orbit: 652 x 3831 km, 34.3° (Epoch: 07 December)

Event Time Altitude Azimuth Distance (km) Brightness Sun altitude
Rises 04:11:14 0° 229° (SW) 7,622 14.4 -22.2°
Reaches altitude 10° 04:16:13 10° 226° (SW) 6,785 14.1 -21.1°
Maximum altitude 04:40:05 73° 143° (SE) 3,680 13.0 -15.5°
Drops below altitude 10° 04:57:53 10° 61° (ENE) 5,329 14.4 -11.4°
Sets 05:01:12 0° 59° (ENE) 6,001 14.7 -10.6°
